Regional Weather Roundup
Issued by NWS

Home | Current Version | Previous Version | Text Only | Print | Product List | Glossary Off
Versions: 1 2 3 4 5 6 7 8 9 10 11 12 13 14 15 16 17 18 19 20 21 22 23 24 25 26 27 28 29 30 31 32 33 34 35 36 37 38 39 40 41 42 43 44 45 46 47 48 49 50

000
ASUS43 KMPX 250801
RWRMN
WEATHER ROUNDUP FOR MINNESOTA
NATIONAL WEATHER SERVICE TWIN CITIES/CHANHASSEN MN
300 AM CDT FRI MAY 25 2018


NOTE: "FAIR" INDICATES FEW OR NO CLOUDS BELOW 12,000 FEET WITH NO
SIGNIFICANT WEATHER AND/OR OBSTRUCTIONS TO VISIBILITY. N/A MEANS
CURRENT SKY AND/OR WEATHER CONDITIONS ARE NOT AVAILABLE.

MNZ060>063-068>070-250900-
   Twin Cities Metro

CITY           SKY/WX    TMP DP  RH WIND       PRES   REMARKS
TWIN CITIES    CLOUDY    72  64  76 W9        29.88R THUNDER
ST PAUL        CLOUDY    68  63  84 SW8       29.87R THUNDER
CRYSTAL        TSTM      67  62  84 S18G29    29.85R
BLAINE         FAIR      72  63  73 SW24G33   29.85R
LAKEVILLE      FAIR      66  63  88 SE5       29.84F
EDEN PRAIRIE   LGT RAIN  71  62  73 W7        29.87R
SOUTH ST PAUL  MOCLDY    67  66  97 SE5       29.83F
LAKE ELMO      TSTM      68  64  88 SE15G23   29.88R
$$
MNZ001>005-007-008-013>017-022>024-027-028-250900-
   Northwest Minnesota

CITY           SKY/WX    TMP DP  RH WIND       PRES   REMARKS
BEMIDJI        FAIR      68  61  79 SW7       29.73S
HALLOCK        FAIR      64  55  72 W9        29.64R
ROSEAU         FAIR      64  59  82 S8        29.64F
WARROAD        FAIR      64  61  88 S6        29.64F
THIEF RVR FALL FAIR      63  58  83 SW6       29.69F
CROOKSTON      FAIR      63  55  77 SW7       29.69S
FOSSTON        FAIR      63  57  82 S8        29.72S
DETROIT LAKES  FAIR      68  63  83 SW9       29.75F
MOORHEAD       FAIR      64  55  72 SW6       29.73S
PARK RAPIDS    FAIR      64  60  87 S6        29.74F
MAHNOMEN       FAIR      64  59  86 SW8       29.72S
$$
MNZ006-009>011-018-025>026-250900-
   North Central Minnesota

CITY           SKY/WX    TMP DP  RH WIND       PRES   REMARKS
BAUDETTE       FAIR      66  62  87 S8        29.65F
FLAG ISLAND    FAIR      63  59  88 S7        29.62F
INTL FALLS     FAIR      65  64  97 CALM      29.68F
WASKISH          N/A     64  63  94 CALM      29.68F
BIG FORK       FAIR      64  61  88 CALM      29.72F
LONGVILLE      FAIR      70  57  64 S6        29.75F
GRAND RAPIDS   FAIR      67  60  78 S8        29.77F
CRANE LAKE     FAIR      64  63  94 CALM      29.76R
ORR            FAIR      64  63  94 CALM      29.72S
COOK           FAIR      68  63  83 S6        29.75F
WALKER         FAIR      68  59  74 SW7       29.73F
$$
MNZ012-019>021-037-250900-
   Northeast Minnesota

CITY           SKY/WX    TMP DP  RH WIND       PRES   REMARKS
DULUTH         FAIR      66  58  75 SW14      29.79F
ELY            FAIR      68  61  77 SW6       29.77S
HIBBING        FAIR      64  60  87 CALM      29.77S
EVELETH        FAIR      66  61  82 SW5       29.79S
DULUTH HARBOR  CLOUDY    52  52 100 CALM      29.79F FOG
TWO HARBORS    FAIR      57  52  82 W3        29.77F
SILVER BAY     FAIR      55  55 100 CALM      29.77S FOG
G MARAIS ARPRT FAIR      59  55  88 CALM      29.81F FOG
$$
MNZ029>031-032-039>041-046>048-054>057-064-250900-
   West Central Minnesota

CITY           SKY/WX    TMP DP  RH WIND       PRES   REMARKS
FERGUS FALLS   FAIR      66  63  88 W3        29.71S
WHEATON        CLOUDY    70  63  78 SW7       29.77F
MORRIS         CLEAR     70  63  78 SW10      29.76F
ALEXANDRIA     FAIR      71  62  73 S9        29.79S
ELBOW LAKE     FAIR      65  61  88 W7        29.77S
WADENA         FAIR      64  61  88 S6        29.76S
GLENWOOD       FAIR      64  63  94 S10         N/A
APPLETON       PTCLDY    72  59  64 SW8       29.77F
BENSON         CLOUDY    68  61  77 S9        29.80S
ORTONVILLE     CLEAR     66  61  82 S5        29.77F
MADISON        PTCLDY    70  61  73 SW7       29.78F
WILLMAR        MOCLDY    70  57  64 CALM      29.82F
$$
MNZ033>034-036-042>043-049>051-058-059-250900-
   Central Minnesota

CITY           SKY/WX    TMP DP  RH WIND       PRES   REMARKS
ST CLOUD       FAIR      68  62  81 S8        29.80S
SAUK CENTRE    FAIR      65  61  86 S8        29.79F
PAYNESVILLE    FAIR      71  62  73 S10G17    29.81F
PINE RIVER     CLOUDY    66  57  72 S6        29.80S
BRAINERD       FAIR      70  59  68 S10       29.77F
STAPLES        FAIR      64  57  77 S7        29.77S
LONG PRAIRIE   FAIR      63  61  94 SE6       29.79S
LITTLE FALLS   FAIR      64  63  94 S6        29.79S
LITCHFIELD     TSTM      70  64  83 S5G18     29.84R
BUFFALO        FAIR      70  61  74 S14G20    29.84R
MAPLE LAKE     FAIR      72  63  73 S8        29.83R
HUTCHINSON     FAIR      71  61  71 S10       29.85S
$$
MNZ037-044-045-052-053-250900-
   East Central Minnesota

CITY           SKY/WX    TMP DP  RH WIND       PRES   REMARKS
PRINCETON      FAIR      72  63  73 S9        29.81R
MORA           FAIR      66  59  77 S7        29.82F
CAMBRIDGE      FAIR      72  59  64 S8        29.81S
RUSH CITY      FAIR      67  61  81 S6        29.81F
MOOSE LAKE     FAIR      68  59  73 S9        29.77F
HINCKLEY       FAIR      68  63  83 S7        29.81S
CLOQUET        FAIR      66  57  72 S8        29.79F
MCGREGOR       FAIR      70  61  73 S10G16    29.78F
$$
MNZ071>073-080-081-089-090-097-098-250900-
   Southwest Minnesota

CITY           SKY/WX    TMP DP  RH WIND       PRES   REMARKS
MONTEVIDEO     CLOUDY    66  63  88 SW6       29.79F
CANBY          PTCLDY    71  60  68 SW6       29.80F
MARSHALL       CLOUDY    70  59  68 S8        29.81F
REDWOOD FALLS  PTCLDY    67  63  87 SE8       29.81F
OLIVIA         MOCLDY    70  63  78 SE6       29.81F
PIPESTONE      MOCLDY    64  61  88 S6        29.83F
WINDOM         PTCLDY    73  54  49 S10G16    29.83F
WORTHINGTON    PTCLDY    70  64  81 S14       29.85F
JACKSON        PTCLDY    70  63  78 S10       29.86F
TRACY          CLOUDY    70  61  73 S9        29.81F
SLAYTON        CLOUDY    72  62  71 S9        29.85F
$$
MNZ065>067-074>077-082>085-091>093-250900-
   South Central Minnesota

CITY           SKY/WX    TMP DP  RH WIND       PRES   REMARKS
MANKATO        FAIR      74  62  66 S15       29.84F
NEW ULM        PTCLDY    70  63  78 S3        29.83F
ST JAMES       CLOUDY    72  63  73 S12       29.84F
FAIRMONT       PTCLDY    71  64  78 S12       29.86F
GLENCOE        RAIN      67  67 100 SE14      29.84S
FARIBAULT      FAIR      72  61  68 CALM      29.86F
OWATONNA       FAIR      68  61  77 SE10      29.87F
WASECA         FAIR      72  63  73 S13       29.88F
ALBERT LEA     FAIR      70  57  64 S6        29.89S
$$
MNZ078>079-086>088-094>096-250900-
   Southeast Minnesota

CITY           SKY/WX    TMP DP  RH WIND       PRES   REMARKS
ROCHESTER      FAIR      68  58  70 S9        29.90F
RED WING       FAIR      68  63  83 SE7       29.86F
STANTON        FAIR      70  60  70 S6        29.84F
DODGE CENTER   FAIR      66  57  72 S10       29.90S
WINONA         FAIR      70  64  83 SE3       29.88F
AUSTIN         FAIR      70  59  68 CALM      29.90S
PRESTON        FAIR      67  59  77 SW3       29.92S
$$
ABBREVIATIONS USED IN REMARKS
   TC - TEMPERATURES IN CELSIUS
  WCI - WIND CHILL INDEX
   HX - HEAT INDEX
  VSB - VISIBILITY
$$



USA.gov is the U.S. government's official web portal to all federal, state and local government web resources and services.